Find Starlink 37163

NORAD ID: 68264 Int'l Des: 2026-055 Owner: SPXS Country: US Constellation: starlink operational
LEOCIRCULAR

Live Position

Loading 3D Globe...

About Starlink 37163

Description loading...

Upcoming Passes

Passes for default location (London). Set your location on the main map for personalized predictions.

Altitude History

Loading altitude history...

Two-Line Element Set

1 68264U 26055C 26123.55686769 .00040281 00000-0 92924-3 0 9994
2 68264 53.1612 64.9666 0001793 82.6371 277.4839 15.42191773 8323
Epoch: May 3, 2026 • Age: 18 hours

Current Status

Altitude 440.5 km
Velocity 7.65 km/s
Sub-Earth Point -0.47°S, 89.19°W
Launch Date Mar 19, 2026
Age 0.1 years
Type internet

Technical Details

Classification Payload
Mass 575.00 kg
Dry Mass 530.00 kg
Total Mass 575.00 kg
Length 0.30 m
Diameter 4.10 m
Span 29.00 m
Shape Box + pan
Manufacturer SPXS
Bus Type Starlink V2MO
Phase Status In Orbit
Owner/State SPXS/US

Most Searched